Air Force Academy, CO

12:47 PM MST on November 21, 2019 (GMT -0700)
Usaf Academy

Weather History for KAFF - May, 2019

Change the Weather History Date:

Thursday, May 2, 2019

  Actual Average Record
Temperature  
Mean Temperature 42 °F -  
Max Temperature 51 °F 60 °F 89 °F (1997)
Min Temperature 32 °F 34 °F 19 °F (2013)
Degree Days  
Heating Degree Days 24    
Moisture  
Dew Point 34 °F    
Average Humidity 78    
Maximum Humidity 100    
Minimum Humidity 57    
Precipitation  
Precipitation 0.00 in - - ()
Sea Level Pressure  
Sea Level Pressure 30.05 in    
Wind  
Wind Speed 13 mph (SSE)    
Max Wind Speed 21 mph    
Max Gust Speed 34 mph    
Visibility 10 miles    
Events Rain    
Averages and records for this station are not official NWS values.
T = Trace of Precipitation, MM = Missing Value Source: NWS Daily Summary

Daily Weather History Graph

Daily Weather History Graph

Search for Another Location

Airport or City:

Astronomy

May. 02, 2019 Rise Set
Actual Time 6:00 AM MDT 7:52 PM MDT
Civil Twilight 5:31 AM MDT 8:21 PM MDT
Nautical Twilight 4:56 AM MDT 8:56 PM MDT
Astronomical Twilight 4:18 AM MDT 9:34 PM MDT
Moon 5:12 AM MDT (5/2) 5:44 PM MDT (5/2)
Length of Visible Light 14h 50m
Length of Day
13h 52m
Waning Crescent, 5% of the Moon is Illuminated
May 2
Waning Crescent
May 4
New
May 11
First Quarter
May 18
Full
May 26
Last Quarter

Hourly Weather History & Observations

Time (MDT) Temp. Windchill Dew Point Humidity Pressure Visibility Wind Dir Wind Speed Gust Speed Precip Events Conditions
12:10 AM 35.6 °F 27.5 °F 33.8 °F 93% 30.12 in 10.0 mi South 11.5 mph - N/A   Overcast
12:40 AM 35.6 °F 27.1 °F 30.2 °F 81% 30.14 in 10.0 mi SSE 12.7 mph - N/A   Overcast
12:58 AM 34.7 °F 26.4 °F 29.8 °F 82% 30.14 in 10.0 mi SSE 11.5 mph - N/A   Overcast
1:20 AM 33.8 °F 23.9 °F 32.0 °F 93% 30.15 in 10.0 mi South 15.0 mph - N/A   Overcast
1:58 AM 33.4 °F 24.8 °F 32.4 °F 96% 30.17 in 10.0 mi SSE 11.5 mph - N/A   Overcast
2:28 AM 33.8 °F 24.3 °F 32.0 °F 93% 30.16 in 10.0 mi SSE 13.8 mph - N/A   Overcast
2:58 AM 32.9 °F 24.7 °F 31.8 °F 96% 30.15 in 10.0 mi SSE 10.4 mph - N/A   Overcast
3:28 AM 33.8 °F 25.8 °F 30.2 °F 87% 30.15 in 10.0 mi South 10.4 mph - N/A   Overcast
3:58 AM 32.7 °F 23.9 °F 28.9 °F 86% 30.14 in 10.0 mi South 11.5 mph - N/A   Overcast
4:58 AM 32.7 °F 25.0 °F 29.3 °F 87% 30.16 in 10.0 mi SSE 9.2 mph - N/A   Overcast
5:13 AM 33.8 °F 25.3 °F 30.2 °F 87% 30.16 in 10.0 mi SSE 11.5 mph - N/A   Overcast
5:58 AM 33.3 °F 24.1 °F 33.1 °F 99% 30.17 in 10.0 mi SSE 12.7 mph - N/A   Overcast
6:28 AM 32.0 °F 21.2 °F 32.0 °F 100% 30.17 in 10.0 mi SSE 16.1 mph 21.9 mph N/A   Overcast
6:43 AM 33.8 °F 24.3 °F 32.0 °F 93% 30.18 in 10.0 mi SSE 13.8 mph - N/A   Overcast
6:58 AM 33.3 °F 23.7 °F 33.1 °F 99% 30.18 in 10.0 mi SSE 13.8 mph - N/A   Overcast
7:58 AM 33.8 °F 24.3 °F 33.6 °F 99% 30.17 in 10.0 mi SSE 13.8 mph - N/A   Overcast
8:13 AM 33.8 °F 24.8 °F 33.8 °F 100% 30.17 in 9.0 mi SSE 12.7 mph - N/A   Overcast
8:58 AM 34.3 °F 25.0 °F 34.3 °F 100% 30.17 in 10.0 mi South 13.8 mph - N/A   Mostly Cloudy
9:43 AM 37.4 °F 28.9 °F 35.6 °F 93% 30.14 in 10.0 mi SE 13.8 mph - N/A   Mostly Cloudy
9:58 AM 38.8 °F 31.2 °F 33.8 °F 82% 30.14 in 10.0 mi SSE 12.7 mph - N/A   Mostly Cloudy
10:58 AM 41.2 °F 34.5 °F 33.4 °F 74% 30.10 in 10.0 mi SSE 11.5 mph - N/A   Overcast
11:40 AM 42.8 °F 37.0 °F 33.8 °F 70% 30.09 in 10.0 mi South 10.4 mph - N/A   Mostly Cloudy
11:58 AM 44.6 °F 38.8 °F 33.8 °F 66% 30.06 in 10.0 mi South 11.5 mph - N/A   Mostly Cloudy
12:50 PM 46.4 °F 39.0 °F 33.8 °F 62% 30.03 in 10.0 mi SSE 19.6 mph 24.2 mph N/A   Mostly Cloudy
12:58 PM 46.8 °F - 34.5 °F 62% 30.02 in 10.0 mi South 13.8 mph - N/A   Mostly Cloudy
1:28 PM 46.4 °F 39.2 °F 35.6 °F 66% 30.01 in 10.0 mi SSE 18.4 mph 28.8 mph N/A   Mostly Cloudy
1:58 PM 47.8 °F - 35.4 °F 62% 30.00 in 10.0 mi SSE 19.6 mph 26.5 mph N/A   Mostly Cloudy
2:58 PM 49.1 °F - 35.8 °F 60% 29.98 in 10.0 mi SE 13.8 mph - N/A   Mostly Cloudy
3:28 PM 50.0 °F - 35.6 °F 58% 29.96 in 10.0 mi SSE 11.5 mph - N/A   Mostly Cloudy
3:58 PM 50.0 °F - 35.4 °F 57% 29.95 in 10.0 mi SSE 15.0 mph - N/A   Mostly Cloudy
4:03 PM 50.0 °F - 35.6 °F 58% 29.95 in 10.0 mi SE 18.4 mph - N/A Rain Light Rain
4:16 PM 50.0 °F - 35.6 °F 58% 29.94 in 10.0 mi SE 15.0 mph - N/A Rain Light Rain
4:36 PM 50.0 °F - 37.4 °F 62% 29.93 in 10.0 mi SSE 18.4 mph - N/A   Mostly Cloudy
4:58 PM 50.5 °F - 36.3 °F 58% 29.93 in 10.0 mi SSE 20.7 mph - N/A Rain Light Rain
5:09 PM 51.8 °F - 37.4 °F 58% 29.92 in 10.0 mi South 18.4 mph - N/A   Mostly Cloudy
5:22 PM 50.0 °F - 37.4 °F 62% 29.92 in 10.0 mi South 19.6 mph - N/A Rain Light Rain Showers
5:44 PM 50.0 °F - 37.4 °F 62% 29.91 in 10.0 mi SSE 16.1 mph 25.3 mph N/A   Mostly Cloudy
5:51 PM 50.0 °F - 37.4 °F 62% 29.90 in 10.0 mi South 17.3 mph 34.5 mph N/A   Mostly Cloudy
5:58 PM 50.4 °F - 37.4 °F 61% 29.90 in 10.0 mi SSE 17.3 mph 34.5 mph 0.00 in   Mostly Cloudy
6:58 PM 50.0 °F - 37.0 °F 61% 29.93 in 10.0 mi SSE 8.1 mph - N/A   Scattered Clouds
7:58 PM 48.6 °F - 36.5 °F 63% 29.93 in 10.0 mi SSE 9.2 mph - N/A   Partly Cloudy
8:58 PM 43.0 °F - 36.0 °F 76% 29.98 in 10.0 mi Calm Calm - N/A   Clear
9:58 PM 42.3 °F 36.8 °F 38.3 °F 86% 29.96 in 10.0 mi NNW 9.2 mph - N/A   Clear
10:58 PM 39.7 °F 34.9 °F 37.6 °F 92% 29.98 in 10.0 mi NNW 6.9 mph - N/A   Mostly Cloudy
11:58 PM 39.7 °F 35.6 °F 37.0 °F 90% 30.00 in 10.0 mi NNE 5.8 mph - N/A   Mostly Cloudy